Hourly Data Report for April 24, 2018

CLYDE RIVER A
NUNAVUT
Current Station Operator: NAVCAN

70°29'09.000" N
68°31'01.000" W
26.50 m
2400804
71090
YCY

Download Data

Hourly Data (April 2018)
Hourly Data Report for April 24, 2018
TIME
LST
Temp Definition
°C
Dew Point Definition
°C
Rel Hum Definition
%
Precip. Amount Definition
mm

Wind Dir Definition
10's deg

Wind Spd Definition
km/h
Visibility Definition
km
Stn Press Definition
kPa
Hmdx Definition


Wind Chill Definition


Weather Definition


00:00 -17.5 -20.6 77 0.0 33 21 16.1 100.34   -28 LegendNANA
01:00 -19.2 -22.4 76 0.0 34 24 16.1 100.36   -30 LegendNANA
02:00 -19.2 -22.6 75 0.0 25 5 16.1 100.42   -23 LegendNANA
03:00 -18.3 -21.9 74 0.0 29 11 16.1 100.46   -26 LegendNANA
04:00 -19.6 -22.8 76 0.0 25 9 16.1 100.49   -26 LegendNANA
05:00 -20.6 -23.5 78 0.0 24 5 16.1 100.51   -25 LegendNANA
06:00 -20.8 -24.3 74 0.0   0 16.1 100.53     LegendNANA
07:00 -21.6 -25.1 74 0.0 7 9 16.1 100.54   -29 LegendNANA
08:00 -21.0 -24.1 76 0.0 6 4 16.1 100.55   -25 LegendNANA
09:00 -19.3 -22.5 76 0.0 9 17 16.1 100.54   -29 LegendNANA
10:00 -18.5 -22.2 73 0.0 6 11 16.1 100.55   -26 LegendNANA
11:00 -17.6 -21.2 74 0.0 8 9 16.1 100.55   -24 LegendNANA
12:00 -17.7 -21.7 72 0.0 3 11 16.1 100.56   -25 LegendNANA
13:00 -17.4 -21.4 71 0.0 3 9 16.1 100.59   -24 LegendNANA
14:00 -17.0 -21.3 70 0.0 3 8 16.1 100.60   -23 LegendNANA
15:00 -17.0 -20.6 74 0.0 6 8 16.1 100.61   -23 LegendNANA
16:00 -17.3 -20.3 78 0.0 13 4 16.1 100.64   -20 LegendNANA
17:00 -18.5 -21.5 78 0.0 14 5 16.1 100.65   -23 LegendNANA
18:00 -18.7 -21.5 79 0.0 LegendMM 4 16.1 100.66   -22 LegendNANA
19:00 -21.0 -22.9 85 0.0 9 4 16.1 100.68   -25 LegendNANA
20:00 -24.6 -26.8 83 0.0   0 16.1 100.71     LegendNANA
21:00 -24.5 -26.8 81 0.0 27 8 16.1 100.73   -32 LegendNANA
22:00 -25.5 -27.9 81 0.0 29 5 16.1 100.73   -31 LegendNANA
23:00 -25.0 -27.1 83 0.0 25 8 16.1 100.75   -32 LegendNANA

Notes on Data Quality.

Legend

  • E = Estimated
  • M = Missing
  • NA = Not Available*
  • [empty] = Indicates an unobserved value
Date modified: